Content
SEND FEEDBACK

Daily
Averages
Monthly
Summary
United States of America

CENTERVILLE, IOWA


Home > North America > United States > Iowa
Elevation: 950 feet     Latitude: 40 43N     Longitude: 092 52W

WEATHER
 
SELECT A DAY
Number of Records: 148,460;   Date Range: 10/18/07 - 8/18/14
 
SHARE

PRINT THIS DATA

[ ← Previous Day ]
WEATHER ALMANAC - FEBRUARY 13, 2013
[ Next Day → ]
[ °C ]   °F
Weather ElementAverageHighLow
Temperature36.6 °F48.2 °F (2:15 pm)26.6 °F (4:55 am)
Dewpoint26.6 °F32 °F (11:35 am)24.8 °F (12:35 am)
Humidity69 %93 % (4:55 am)43 % (2:55 pm)
Barometer29.81 in29.89 in (12:35 am)29.73 in (10:15 pm)
Wind Speed8 mph12.7 mph (11:35 am)
Weather ElementAverage
Visibility10 mi
Wind DirectionWSW (235.2 °)

Weather ElementTotal
Precipitation---
Heating Degree Days27.6 (Base 65)
Averaged from 71 records on February 13, 2013
WEATHER CONDITIONS BREAKOUT
WIND DIRECTION BREAKOUT
WEATHER BY HOUR - FEBRUARY 13, 2013
[ °C ]   °F
Local TimeTemperatureDewpointHumidityBarometerVisibilityWind DirectionWind SpeedGust SpeedPrecipitationEventsConditions
12:35 AM30.2 °F24.8 °F80 %29.89 in10.0 miSSW (210°)8.1 mphClear
12:55 AM30.2 °F24.8 °F80 %29.89 in10.0 miSSW (210°)8.1 mphClear
1:15 AM32.0 °F24.8 °F75 %29.88 in10.0 miSW (220°)10.4 mphClear
1:35 AM32.0 °F24.8 °F75 %29.87 in10.0 miSW (220°)9.2 mphClear
1:55 AM30.2 °F24.8 °F80 %29.87 in10.0 miSW (220°)9.2 mphClear
2:15 AM30.2 °F24.8 °F80 %29.87 in10.0 miWSW (240°)9.2 mphClear
2:35 AM30.2 °F24.8 °F80 %29.86 in10.0 miSW (220°)9.2 mphClear
2:55 AM28.4 °F24.8 °F86 %29.85 in10.0 miSW (230°)9.2 mphClear
3:15 AM28.4 °F24.8 °F86 %29.84 in10.0 miSW (230°)9.2 mphClear
3:35 AM28.4 °F24.8 °F86 %29.85 in10.0 miWest (260°)8.1 mphClear
3:55 AM28.4 °F24.8 °F86 %29.84 in10.0 miWSW (250°)6.9 mphClear
4:15 AM28.4 °F24.8 °F86 %29.84 in10.0 miWest (260°)5.8 mphClear
4:35 AM28.4 °F24.8 °F86 %29.84 in10.0 miWest (280°)5.8 mphClear
4:55 AM26.6 °F24.8 °F93 %29.83 in10.0 miWest (260°)5.8 mphClear
5:15 AM26.6 °F24.8 °F93 %29.83 in10.0 miSW (230°)4.6 mphClear
5:35 AM26.6 °F24.8 °F93 %29.83 in10.0 miWSW (240°)4.6 mphClear
5:55 AM26.6 °F24.8 °F93 %29.83 in10.0 miWest (270°)5.8 mphClear
6:15 AM26.6 °F24.8 °F93 %29.83 in10.0 miWest (280°)6.9 mphClear
6:35 AM26.6 °F24.8 °F93 %29.83 in10.0 miWest (270°)5.8 mphClear
6:55 AM26.6 °F24.8 °F93 %29.83 in10.0 miWest (270°)5.8 mphClear
7:15 AM26.6 °F24.8 °F93 %29.83 in10.0 miWest (260°)6.9 mphClear
7:35 AM26.6 °F24.8 °F93 %29.83 in10.0 miWSW (240°)5.8 mphClear
7:55 AM28.4 °F24.8 °F86 %29.84 in10.0 miWSW (250°)6.9 mphClear
8:15 AM30.2 °F24.8 °F80 %29.84 in10.0 miWSW (250°)6.9 mphClear
8:35 AM32.0 °F26.6 °F80 %29.84 in10.0 miWSW (240°)6.9 mphClear
8:55 AM32.0 °F26.6 °F80 %29.84 in10.0 miWSW (240°)6.9 mphClear
9:15 AM32.0 °F26.6 °F80 %29.84 in10.0 miWSW (250°)5.8 mphClear
9:35 AM35.6 °F26.6 °F70 %29.84 in10.0 miWest (260°)5.8 mphClear
9:55 AM35.6 °F26.6 °F70 %29.84 in10.0 miWest (260°)6.9 mphClear
10:15 AM35.6 °F28.4 °F75 %29.84 in10.0 miWest (270°)9.2 mphClear
10:35 AM37.4 °F28.4 °F70 %29.84 in10.0 miWest (260°)9.2 mphClear
10:55 AM37.4 °F28.4 °F70 %29.84 in10.0 miWest (260°)10.4 mphClear
11:15 AM39.2 °F28.4 °F65 %29.84 in10.0 miWest (260°)10.4 mphClear
11:35 AM39.2 °F32.0 °F75 %29.85 in10.0 miWest (270°)12.7 mphClear
11:55 AM41.0 °F30.2 °F65 %29.83 in10.0 miWSW (240°)9.2 mphClear
12:15 PM41.0 °F30.2 °F65 %29.83 in10.0 miWSW (240°)10.4 mphClear
12:35 PM42.8 °F32.0 °F66 %29.82 in10.0 miWSW (240°)8.1 mphClear
12:55 PM44.6 °F30.2 °F57 %29.81 in10.0 miWest (260°)8.1 mphClear
1:15 PM42.8 °F30.2 °F61 %29.80 in10.0 miWSW (240°)6.9 mphClear
1:35 PM44.6 °F28.4 °F53 %29.80 in10.0 miWSW (250°)11.5 mphClear
1:55 PM46.4 °F28.4 °F50 %29.79 in10.0 miWest (270°)11.5 mphClear
2:15 PM48.2 °F28.4 °F46 %29.78 in10.0 miWest (260°)10.4 mphClear
2:35 PM48.2 °F28.4 °F46 %29.78 in10.0 miWSW (240°)9.2 mphClear
2:55 PM48.2 °F26.6 °F43 %29.78 in10.0 miWest (270°)10.4 mphClear
3:15 PM48.2 °F26.6 °F43 %29.77 in10.0 miWSW (250°)10.4 mphClear
3:35 PM48.2 °F28.4 °F46 %29.77 in10.0 miSW (220°)12.7 mphClear
3:55 PM48.2 °F28.4 °F46 %29.77 in10.0 miSW (230°)12.7 mphClear
4:15 PM48.2 °F26.6 °F43 %29.77 in10.0 miSW (230°)11.5 mphClear
4:35 PM48.2 °F26.6 °F43 %29.77 in10.0 miSW (230°)10.4 mphClear
4:55 PM46.4 °F28.4 °F50 %29.77 in10.0 miWSW (240°)8.1 mphClear
5:15 PM46.4 °F28.4 °F50 %29.77 in10.0 miSW (230°)8.1 mphClear
5:35 PM44.6 °F28.4 °F53 %29.77 in10.0 miSW (220°)5.8 mphClear
5:55 PM41.0 °F26.6 °F57 %29.77 in10.0 miSSW (210°)5.8 mphClear
6:15 PM41.0 °F26.6 °F57 %29.77 in10.0 miSSW (200°)5.8 mphClear
6:35 PM41.0 °F26.6 °F57 %29.77 in10.0 miSSW (210°)5.8 mphClear
6:55 PM41.0 °F26.6 °F57 %29.77 in10.0 miSSW (200°)4.6 mphClear
7:15 PM41.0 °F24.8 °F53 %29.76 in10.0 miSouth (190°)5.8 mphClear
7:35 PM39.2 °F26.6 °F61 %29.77 in10.0 miSSW (200°)5.8 mphClear
7:55 PM37.4 °F26.6 °F65 %29.76 in10.0 miSouth (190°)5.8 mphClear
8:15 PM37.4 °F24.8 °F60 %29.76 in10.0 miSouth (190°)5.8 mphPartly Cloudy
8:35 PM37.4 °F24.8 °F60 %29.75 in10.0 miSSW (200°)6.9 mphPartly Cloudy
8:55 PM37.4 °F24.8 °F60 %29.75 in10.0 miSSW (200°)5.8 mphClear
9:15 PM37.4 °F26.6 °F65 %29.75 in10.0 miSSW (210°)6.9 mphMostly Cloudy
9:35 PM37.4 °F26.6 °F65 %29.75 in10.0 miSSW (210°)5.8 mphOvercast
9:55 PM37.4 °F26.6 °F65 %29.74 in10.0 miSSW (200°)8.1 mphScattered Clouds
10:15 PM37.4 °F26.6 °F65 %29.73 in10.0 miSSW (200°)6.9 mphPartly Cloudy
10:35 PM37.4 °F26.6 °F65 %29.73 in10.0 miSW (220°)6.9 mphClear
10:55 PM37.4 °F26.6 °F65 %29.73 in10.0 miSSW (210°)8.1 mphClear
11:15 PM37.4 °F26.6 °F65 %29.73 in10.0 miSW (220°)10.4 mphClear
11:35 PM37.4 °F26.6 °F65 %29.73 in10.0 miSW (220°)10.4 mphPartly Cloudy
11:55 PM37.4 °F26.6 °F65 %29.74 in10.0 miSW (220°)12.7 mphClear
Hourly data recorded from KTVK, located miles away from Centerville, Iowa







STORIES FROM OUR PARTNERS